3 Gehege Außen am Haus Messungen

Zurück zum Überblick

Zeitpunkt Temperatur Luftfeuchte
15.07.2019 23:59:39 20,2 C 57,0%
15.07.2019 23:52:38 20,2 C 57,0%
15.07.2019 23:45:36 20,2 C 57,0%
15.07.2019 23:38:34 20,2 C 57,0%
15.07.2019 23:31:32 20,3 C 57,0%
15.07.2019 23:29:48 20,3 C 57,0%
15.07.2019 23:17:28 20,3 C 57,0%
15.07.2019 23:10:26 20,3 C 57,0%
15.07.2019 23:03:23 20,4 C 57,0%
15.07.2019 22:56:23 20,4 C 57,0%
15.07.2019 22:49:22 20,4 C 57,0%
15.07.2019 22:42:20 20,5 C 57,0%
15.07.2019 22:35:19 20,5 C 57,0%
15.07.2019 22:28:17 20,5 C 57,0%
15.07.2019 22:21:16 20,5 C 57,0%
15.07.2019 22:14:13 20,5 C 57,0%
15.07.2019 22:07:11 20,5 C 57,0%
15.07.2019 22:00:09 20,6 C 56,0%
15.07.2019 21:53:08 20,5 C 56,0%
15.07.2019 21:46:07 20,6 C 56,0%
15.07.2019 21:39:05 20,6 C 56,0%
15.07.2019 21:32:03 20,6 C 56,0%
15.07.2019 21:25:01 20,6 C 56,0%
15.07.2019 21:17:58 20,6 C 55,0%
15.07.2019 21:10:55 20,6 C 55,0%
15.07.2019 21:03:54 20,6 C 55,0%
15.07.2019 20:56:53 20,6 C 55,0%
15.07.2019 20:55:09 20,5 C 55,0%
15.07.2019 20:42:49 20,6 C 54,0%
15.07.2019 20:35:47 20,7 C 54,0%
15.07.2019 20:28:46 20,8 C 54,0%
15.07.2019 20:21:43 21,0 C 53,0%
15.07.2019 20:14:41 21,1 C 53,0%
15.07.2019 20:07:39 21,2 C 53,0%
15.07.2019 20:00:37 21,3 C 53,0%
15.07.2019 19:53:36 21,4 C 53,0%
15.07.2019 19:46:34 21,4 C 53,0%
15.07.2019 19:39:31 21,4 C 53,0%
15.07.2019 19:32:29 21,5 C 53,0%
15.07.2019 19:25:28 21,5 C 53,0%
15.07.2019 19:18:26 21,6 C 52,0%
15.07.2019 19:11:23 21,6 C 52,0%
15.07.2019 19:04:23 21,7 C 52,0%
15.07.2019 18:57:20 21,7 C 52,0%
15.07.2019 18:50:17 21,7 C 52,0%
15.07.2019 18:43:15 21,8 C 52,0%
15.07.2019 18:36:13 21,9 C 52,0%
15.07.2019 18:29:10 21,9 C 52,0%
15.07.2019 18:22:08 22,0 C 52,0%
15.07.2019 18:15:05 22,0 C 52,0%
15.07.2019 18:08:02 22,0 C 52,0%
15.07.2019 18:01:01 22,0 C 52,0%
15.07.2019 17:54:00 22,0 C 52,0%
15.07.2019 17:46:57 22,1 C 52,0%
15.07.2019 17:39:57 22,3 C 52,0%
15.07.2019 17:32:56 22,4 C 52,0%
15.07.2019 17:25:56 22,4 C 52,0%
15.07.2019 17:18:54 22,5 C 52,0%
15.07.2019 17:11:52 22,5 C 52,0%
15.07.2019 17:10:08 22,6 C 52,0%
15.07.2019 16:57:49 22,6 C 51,0%
15.07.2019 16:50:49 22,8 C 51,0%
15.07.2019 16:43:46 22,8 C 51,0%
15.07.2019 16:36:44 22,8 C 51,0%
15.07.2019 16:29:42 22,8 C 52,0%
15.07.2019 16:22:38 22,8 C 51,0%
15.07.2019 16:15:35 22,8 C 51,0%
15.07.2019 16:08:34 22,8 C 51,0%
15.07.2019 16:01:32 22,9 C 51,0%
15.07.2019 15:54:31 23,0 C 51,0%
15.07.2019 15:47:29 23,0 C 52,0%
15.07.2019 15:40:25 23,0 C 51,0%
15.07.2019 15:33:22 23,0 C 51,0%
15.07.2019 15:26:20 23,1 C 51,0%
15.07.2019 15:19:16 23,1 C 51,0%
15.07.2019 15:12:15 23,1 C 51,0%
15.07.2019 15:05:13 23,1 C 51,0%
15.07.2019 14:58:12 23,1 C 51,0%
15.07.2019 14:51:08 23,1 C 51,0%
15.07.2019 14:44:08 23,1 C 52,0%
15.07.2019 14:37:07 23,0 C 51,0%
15.07.2019 14:30:06 23,0 C 51,0%
15.07.2019 14:23:04 23,0 C 52,0%
15.07.2019 14:16:00 22,8 C 52,0%
15.07.2019 14:08:59 22,7 C 52,0%
15.07.2019 14:01:57 22,7 C 52,0%
15.07.2019 13:54:56 22,5 C 52,0%
15.07.2019 13:47:53 22,5 C 52,0%
15.07.2019 13:40:50 22,5 C 52,0%
15.07.2019 13:39:06 22,5 C 52,0%
15.07.2019 13:19:42 22,2 C 53,0%
15.07.2019 13:12:39 22,2 C 53,0%
15.07.2019 13:05:37 22,1 C 53,0%
15.07.2019 12:58:35 22,0 C 53,0%
15.07.2019 12:51:34 22,0 C 53,0%
15.07.2019 12:44:32 22,0 C 53,0%
15.07.2019 12:37:31 22,0 C 53,0%
15.07.2019 12:30:25 21,9 C 53,0%
15.07.2019 12:23:26 21,9 C 53,0%
15.07.2019 12:16:24 21,7 C 54,0%
15.07.2019 12:09:21 21,6 C 54,0%
15.07.2019 12:02:18 21,6 C 54,0%
15.07.2019 11:55:16 21,5 C 53,0%
15.07.2019 11:48:14 21,4 C 54,0%
15.07.2019 11:41:13 21,2 C 55,0%
15.07.2019 11:34:10 21,0 C 55,0%
15.07.2019 11:27:08 21,0 C 55,0%
15.07.2019 11:20:05 20,9 C 55,0%
15.07.2019 11:13:02 20,9 C 55,0%
15.07.2019 11:05:59 20,9 C 56,0%
15.07.2019 10:58:56 20,8 C 56,0%
15.07.2019 10:51:54 20,7 C 56,0%
15.07.2019 10:44:52 20,6 C 55,0%
15.07.2019 10:37:49 20,5 C 56,0%
15.07.2019 10:30:49 20,5 C 56,0%
15.07.2019 10:23:48 20,5 C 56,0%
15.07.2019 10:16:45 20,4 C 56,0%
15.07.2019 10:09:44 20,3 C 57,0%
15.07.2019 10:08:00 20,3 C 57,0%
15.07.2019 09:55:39 20,2 C 56,0%
15.07.2019 09:48:38 20,2 C 56,0%
15.07.2019 09:41:36 20,3 C 56,0%
15.07.2019 09:34:35 20,4 C 56,0%
15.07.2019 09:27:33 20,5 C 56,0%
15.07.2019 09:20:32 20,4 C 56,0%
15.07.2019 09:13:31 20,4 C 55,0%
15.07.2019 09:06:28 20,4 C 55,0%
15.07.2019 08:59:26 20,5 C 55,0%
15.07.2019 08:52:25 20,6 C 55,0%
15.07.2019 08:45:22 20,7 C 55,0%
15.07.2019 08:38:22 20,7 C 55,0%
15.07.2019 08:31:18 20,8 C 55,0%
15.07.2019 08:24:17 20,9 C 55,0%
15.07.2019 08:17:14 21,0 C 55,0%
15.07.2019 08:10:14 21,1 C 55,0%
15.07.2019 08:03:11 21,2 C 55,0%
15.07.2019 07:56:10 21,3 C 55,0%
15.07.2019 07:49:08 21,5 C 56,0%
15.07.2019 07:42:06 21,5 C 57,0%
15.07.2019 07:35:03 21,4 C 57,0%
15.07.2019 07:28:03 21,4 C 57,0%
15.07.2019 07:21:01 21,3 C 57,0%
15.07.2019 07:13:58 21,3 C 57,0%
15.07.2019 07:06:56 21,2 C 57,0%
15.07.2019 06:59:54 21,2 C 57,0%
15.07.2019 06:52:50 21,2 C 57,0%
15.07.2019 06:45:50 21,2 C 57,0%
15.07.2019 06:38:46 21,2 C 57,0%
15.07.2019 06:31:46 21,1 C 57,0%
15.07.2019 06:24:46 21,2 C 57,0%
15.07.2019 06:17:43 21,2 C 57,0%
15.07.2019 06:10:40 21,2 C 57,0%
15.07.2019 06:03:40 21,2 C 57,0%
15.07.2019 05:56:37 21,3 C 57,0%
15.07.2019 05:49:37 21,3 C 57,0%
15.07.2019 05:42:34 21,3 C 57,0%
15.07.2019 05:35:33 21,3 C 57,0%
15.07.2019 05:28:30 21,4 C 57,0%
15.07.2019 05:21:29 21,4 C 57,0%
15.07.2019 05:14:27 21,4 C 57,0%
15.07.2019 05:07:25 21,4 C 57,0%
15.07.2019 05:00:23 21,5 C 57,0%
15.07.2019 04:53:20 21,5 C 57,0%
15.07.2019 04:46:17 21,5 C 57,0%
15.07.2019 04:39:16 21,6 C 56,0%
15.07.2019 04:32:13 21,6 C 56,0%
15.07.2019 04:25:12 21,6 C 56,0%
15.07.2019 04:18:09 21,7 C 56,0%
15.07.2019 04:11:08 21,7 C 56,0%
15.07.2019 04:04:07 21,7 C 56,0%
15.07.2019 03:57:06 21,8 C 56,0%
15.07.2019 03:50:06 21,8 C 56,0%
15.07.2019 03:43:02 21,8 C 56,0%
15.07.2019 03:35:59 21,9 C 56,0%
15.07.2019 03:28:56 21,9 C 56,0%
15.07.2019 03:21:54 22,0 C 56,0%
15.07.2019 03:14:52 22,0 C 56,0%
15.07.2019 03:07:49 22,0 C 56,0%
15.07.2019 03:00:46 22,1 C 56,0%
15.07.2019 02:53:44 22,1 C 56,0%
15.07.2019 02:46:42 22,1 C 56,0%
15.07.2019 02:39:39 22,1 C 56,0%
15.07.2019 02:32:37 22,2 C 56,0%
15.07.2019 02:25:35 22,2 C 56,0%
15.07.2019 02:18:34 22,3 C 56,0%
15.07.2019 02:11:32 22,3 C 55,0%
15.07.2019 02:04:30 22,3 C 55,0%
15.07.2019 01:57:29 22,4 C 55,0%
15.07.2019 01:50:28 22,5 C 55,0%
15.07.2019 01:43:26 22,5 C 55,0%
15.07.2019 01:36:25 22,5 C 55,0%
15.07.2019 01:29:23 22,5 C 55,0%
15.07.2019 01:22:22 22,5 C 55,0%
15.07.2019 01:15:21 22,6 C 55,0%
15.07.2019 01:08:18 22,7 C 55,0%
15.07.2019 01:01:17 22,8 C 55,0%
15.07.2019 00:54:14 22,8 C 55,0%
15.07.2019 00:47:12 22,8 C 55,0%
15.07.2019 00:40:10 22,8 C 55,0%
15.07.2019 00:33:09 22,9 C 55,0%
15.07.2019 00:26:06 22,9 C 55,0%
15.07.2019 00:19:06 23,0 C 55,0%
15.07.2019 00:12:05 23,1 C 55,0%
15.07.2019 00:05:04 23,1 C 55,0%